sat.trackr.live / text

‹ back to catalog

STARLINK-35696

NORAD 66489 · 2025-263E

PAYLOAD ACTIVE UNKNOWN

§ Identity

Operator
Country
US
Launch date
2025-11-15
Launch site
AFETR
Launch vehicle
Mass (kg)
RCS (m²)

Purposes: comms

External: N2YO · Heavens-Above · Gunter

§ Orbital elements

Epoch: 2026-05-24T18:20:22.294752Z

Period
94.27 min
Inclination
43.0019°
Eccentricity
0.0001785
Mean motion
15.27587782 rev/d
Perigee alt
481.8 km
Apogee alt
484.3 km
Semi-major
6,861.2 km
B*
5.3903e-4
RAAN
281.0617°
Arg perigee
261.3596°
Mean anomaly
98.7054°
Rev number
3,053

§ Raw data

STARLINK-356961 66489U 25263E   26144.76414693  .00014604  00000+0  53903-3 0  99952 66489  43.0019 281.0617 0001785 261.3596  98.7054 15.27587782 30536

JSON: /api/v1/satellites/66489 · /tle

For live sub-satellite position, see the globe view (requires WebGL).

§ Visibility from observer

Set your observer location to see the next 7 days of passes ≥ 10°. The values pass through the URL so the page stays shareable.

No JS? Fill the form by hand. The geolocation button needs JavaScript.